timestamp,surface_pressure_avg,surface_temp_avg,battery_voltage,lat,long
2021-10-08 00:09:01+00:00,376.8479,13.88,12.73,47.84626,-54.09684
2021-10-08 00:19:01+00:00,380.593,13.89,12.73,47.84626,-54.09684
2021-10-08 00:29:01+00:00,384.5131,13.89,12.73,47.84626,-54.09684
2021-10-08 00:39:01+00:00,382.4213,13.9,12.73,47.84626,-54.09684
2021-10-08 00:49:01+00:00,379.2547,13.9,12.73,47.84626,-54.09684
2021-10-08 00:59:01+00:00,377.7946,13.97,12.73,47.84626,-54.09684
2021-10-08 01:09:01+00:00,375.4879,14.0,12.73,47.84626,-54.09684
2021-10-08 01:19:01+00:00,373.5495,14.0,12.73,47.84626,-54.09684
2021-10-08 01:29:01+00:00,371.5012,14.01,12.73,47.84626,-54.09684
2021-10-08 01:39:01+00:00,365.9196,14.01,12.73,47.84626,-54.09684
2021-10-08 01:49:01+00:00,360.9263,14.0,12.73,47.84626,-54.09684
2021-10-08 01:59:01+00:00,356.0963,14.0,12.73,47.84626,-54.09684
2021-10-08 02:09:01+00:00,351.7363,14.0,12.73,47.84626,-54.09684
2021-10-08 02:19:00+00:00,346.528,14.0,12.65,47.84626,-54.09684
2021-10-08 02:29:00+00:00,339.8712,14.0,12.65,47.84626,-54.09684
2021-10-08 02:39:00+00:00,331.473,14.0,12.65,47.84626,-54.09684
2021-10-08 02:49:00+00:00,322.2029,14.0,12.65,47.84626,-54.09684
2021-10-08 02:59:00+00:00,315.2747,14.0,12.65,47.84626,-54.09684
2021-10-08 03:09:00+00:00,303.4097,14.0,12.65,47.84626,-54.09684
2021-10-08 03:19:00+00:00,291.363,14.0,12.65,47.84626,-54.09684
2021-10-08 03:29:00+00:00,282.4697,14.0,12.65,47.84626,-54.09684
2021-10-08 03:39:00+00:00,275.6064,14.0,12.65,47.84626,-54.09684
2021-10-08 03:49:00+00:00,264.0064,14.0,12.65,47.84626,-54.09684
2021-10-08 03:59:00+00:00,252.7515,14.0,12.65,47.84626,-54.09684
2021-10-08 04:09:00+00:00,246.0731,14.0,12.65,47.84626,-54.09684
2021-10-08 04:19:01+00:00,240.0281,14.0,12.65,47.84626,-54.09684
2021-10-08 04:29:01+00:00,229.4481,14.0,12.65,47.84626,-54.09684
2021-10-08 04:39:01+00:00,218.8364,14.0,12.65,47.84626,-54.09684
2021-10-08 04:49:01+00:00,211.5914,14.0,12.65,47.84626,-54.09684
2021-10-08 04:59:01+00:00,203.2014,13.9,12.65,47.84626,-54.09684
2021-10-08 05:09:01+00:00,195.5064,13.8,12.65,47.84626,-54.09684
2021-10-08 05:19:01+00:00,189.9582,13.7,12.65,47.84626,-54.09684
2021-10-08 05:29:01+00:00,186.3032,13.7,12.65,47.84626,-54.09684
2021-10-08 05:39:01+00:00,183.7731,13.69,12.65,47.84626,-54.09684
2021-10-08 05:49:01+00:00,178.3715,13.7,12.65,47.84626,-54.09684
2021-10-08 05:59:01+00:00,174.6598,13.7,12.65,47.84626,-54.09684
2021-10-08 06:09:01+00:00,176.1065,13.7,12.65,47.84626,-54.09684
2021-10-08 06:19:01+00:00,173.2548,13.69,12.65,47.84626,-54.09684
2021-10-08 06:29:01+00:00,169.3298,13.6,12.65,47.84626,-54.09684
2021-10-08 06:39:01+00:00,173.7415,13.6,12.65,47.84626,-54.09684
2021-10-08 06:49:01+00:00,174.8148,13.6,12.65,47.84626,-54.09684
2021-10-08 06:59:01+00:00,172.8081,13.67,12.65,47.84626,-54.09684
2021-10-08 07:09:01+00:00,178.9248,13.7,12.65,47.84626,-54.09684
2021-10-08 07:19:01+00:00,186.0265,13.71,12.65,47.84626,-54.09684
2021-10-08 07:29:01+00:00,188.4731,13.78,12.65,47.84626,-54.09684
2021-10-08 07:39:01+00:00,193.9331,13.8,12.65,47.84626,-54.09684
2021-10-08 07:49:01+00:00,203.3331,13.8,12.65,47.84626,-54.09684
2021-10-08 07:59:01+00:00,208.1981,13.8,12.65,47.84626,-54.09684
2021-10-08 08:09:01+00:00,211.3381,13.78,12.65,47.84626,-54.09684
2021-10-08 08:19:01+00:00,218.8531,13.79,12.65,47.84626,-54.09684
2021-10-08 08:29:01+00:00,227.2365,13.79,12.65,47.84626,-54.09684
2021-10-08 08:39:01+00:00,230.0914,13.79,12.65,47.84626,-54.09684
2021-10-08 08:49:01+00:00,233.4114,13.74,12.65,47.84626,-54.09684
2021-10-08 08:59:01+00:00,241.9214,13.75,12.65,47.84626,-54.09684
2021-10-08 09:09:01+00:00,249.9698,13.7,12.65,47.84626,-54.09684
2021-10-08 09:19:01+00:00,254.0397,13.7,12.65,47.84626,-54.09684
2021-10-08 09:29:01+00:00,257.9414,13.7,12.65,47.84626,-54.09684
2021-10-08 09:39:01+00:00,266.973,13.69,12.65,47.84626,-54.09684
2021-10-08 09:49:01+00:00,277.1348,13.48,12.65,47.84626,-54.09684
2021-10-08 09:59:01+00:00,285.403,13.6,12.65,47.84626,-54.09684
2021-10-08 10:09:01+00:00,293.158,13.5,12.65,47.84626,-54.09684
2021-10-08 10:19:01+00:00,301.363,13.5,12.65,47.84626,-54.09684
2021-10-08 10:29:01+00:00,311.7897,13.47,12.65,47.84626,-54.09684
2021-10-08 10:39:01+00:00,316.4014,13.41,12.65,47.84626,-54.09684
2021-10-08 10:49:01+00:00,321.113,13.45,12.65,47.84626,-54.09684
2021-10-08 10:59:01+00:00,332.0296,13.48,12.65,47.84626,-54.09684
2021-10-08 11:09:01+00:00,341.7795,13.4,12.65,47.84626,-54.09684
2021-10-08 11:19:01+00:00,345.4514,13.4,12.65,47.84626,-54.09684
2021-10-08 11:29:01+00:00,357.8312,13.48,12.65,47.84626,-54.09684
2021-10-08 11:39:01+00:00,370.333,13.5,12.65,47.84626,-54.09684
2021-10-08 11:49:01+00:00,374.9063,13.5,12.65,47.84626,-54.09684
2021-10-08 11:59:01+00:00,375.6346,13.5,12.65,47.84626,-54.09684
2021-10-08 12:09:01+00:00,378.0646,13.4,12.65,47.84626,-54.09684
2021-10-08 12:19:01+00:00,385.3646,13.32,12.65,47.84626,-54.09684
2021-10-08 12:29:01+00:00,388.3195,13.37,12.65,47.84626,-54.09684
2021-10-08 12:39:01+00:00,394.2062,13.39,12.65,47.84626,-54.09684
2021-10-08 12:49:01+00:00,394.6695,13.4,12.65,47.84626,-54.09684
2021-10-08 12:59:01+00:00,391.8229,13.4,12.65,47.84626,-54.09684
2021-10-08 13:09:01+00:00,392.7913,13.46,12.65,47.84626,-54.09684
2021-10-08 13:19:00+00:00,390.4129,13.49,12.65,47.84626,-54.09684
2021-10-08 13:29:00+00:00,384.0746,13.49,12.65,47.84626,-54.09684
2021-10-08 13:39:00+00:00,382.4845,13.47,12.65,47.84626,-54.09684
2021-10-08 13:49:00+00:00,380.6097,13.46,12.65,47.84626,-54.09684
2021-10-08 13:59:00+00:00,372.9479,13.47,12.65,47.84626,-54.09684
2021-10-08 14:09:00+00:00,366.0629,13.44,12.65,47.84626,-54.09684
2021-10-08 14:19:01+00:00,357.4829,13.4,12.81,47.84626,-54.09684
2021-10-08 14:29:01+00:00,349.5596,13.4,12.81,47.84626,-54.09684
2021-10-08 14:39:01+00:00,339.0529,13.4,12.81,47.84626,-54.09684
2021-10-08 14:49:01+00:00,336.5513,13.4,12.81,47.84626,-54.09684
2021-10-08 14:59:01+00:00,333.05800000000005,13.4,12.81,47.84626,-54.09684
2021-10-08 15:09:01+00:00,317.2097,13.3,12.81,47.84626,-54.09684
2021-10-08 15:19:01+00:00,307.413,13.3,13.44,47.84626,-54.09684
2021-10-08 15:29:01+00:00,301.3164,13.3,13.44,47.84626,-54.09684
2021-10-08 15:39:01+00:00,292.8563,13.38,13.44,47.84626,-54.09684
2021-10-08 15:49:01+00:00,283.163,13.59,13.44,47.84626,-54.09684
2021-10-08 15:59:01+00:00,272.8064,13.42,13.44,47.84626,-54.09684
2021-10-08 16:09:01+00:00,264.3164,13.31,13.44,47.84626,-54.09684
2021-10-08 16:19:00+00:00,256.0798,13.4,14.24,47.84626,-54.09684
2021-10-08 16:29:00+00:00,245.4147,13.5,14.24,47.84626,-54.09684
2021-10-08 16:39:00+00:00,233.81799999999998,13.36,14.24,47.84626,-54.09684
2021-10-08 16:49:00+00:00,222.7331,13.4,14.24,47.84626,-54.09684
2021-10-08 16:59:00+00:00,216.1998,13.4,14.24,47.84626,-54.09684
2021-10-08 17:09:00+00:00,210.9898,13.4,14.24,47.84626,-54.09684
2021-10-08 17:19:01+00:00,201.1131,13.36,14.48,47.84626,-54.09684
2021-10-08 17:29:01+00:00,193.2431,13.2,14.48,47.84626,-54.09684
2021-10-08 17:39:01+00:00,191.4498,13.19,14.48,47.84626,-54.09684
2021-10-08 17:49:01+00:00,180.3681,13.2,14.48,47.84626,-54.09684
2021-10-08 17:59:01+00:00,174.0914,13.38,14.48,47.84626,-54.09684
2021-10-08 18:09:01+00:00,175.9248,13.5,14.48,47.84626,-54.09684
2021-10-08 18:19:00+00:00,168.3465,13.4,14.16,47.84626,-54.09684
2021-10-08 18:29:00+00:00,159.7249,13.4,14.16,47.84626,-54.09684
2021-10-08 18:39:00+00:00,163.4765,13.4,14.16,47.84626,-54.09684
2021-10-08 18:49:00+00:00,166.7998,13.4,14.16,47.84626,-54.09684
2021-10-08 18:59:00+00:00,163.0799,13.4,14.16,47.84626,-54.09684
2021-10-08 19:09:00+00:00,164.3565,13.4,14.16,47.84626,-54.09684
2021-10-08 19:19:01+00:00,168.5548,13.4,14.0,47.84626,-54.09684
2021-10-08 19:29:01+00:00,167.7698,13.38,14.0,47.84626,-54.09684
2021-10-08 19:39:01+00:00,167.8481,13.4,14.0,47.84626,-54.09684
2021-10-08 19:49:01+00:00,177.7448,13.38,14.0,47.84626,-54.09684
2021-10-08 19:59:01+00:00,182.8465,13.32,14.0,47.84626,-54.09684
2021-10-08 20:09:01+00:00,181.2331,13.37,14.0,47.84626,-54.09684
2021-10-08 20:19:01+00:00,187.9814,13.31,13.68,47.84626,-54.09684
2021-10-08 20:29:01+00:00,199.7614,13.3,13.68,47.84626,-54.09684
2021-10-08 20:39:01+00:00,204.0881,13.3,13.68,47.84626,-54.09684
2021-10-08 20:49:01+00:00,204.9831,13.2,13.68,47.84626,-54.09684
2021-10-08 20:59:01+00:00,210.4614,13.2,13.68,47.84626,-54.09684
2021-10-08 21:09:01+00:00,217.0748,13.2,13.68,47.84626,-54.09684
2021-10-08 21:19:01+00:00,219.2948,13.14,13.29,47.84626,-54.09684
2021-10-08 21:29:01+00:00,222.1964,13.1,13.29,47.84626,-54.09684
2021-10-08 21:39:01+00:00,228.7064,13.1,13.29,47.84626,-54.09684
2021-10-08 21:49:01+00:00,232.2164,13.02,13.29,47.84626,-54.09684
2021-10-08 21:59:01+00:00,235.1397,13.0,13.29,47.84626,-54.09684
2021-10-08 22:09:01+00:00,241.8498,13.07,13.29,47.84626,-54.09684
2021-10-08 22:19:01+00:00,247.8581,13.1,12.89,47.84626,-54.09684
2021-10-08 22:29:01+00:00,253.1514,13.1,12.89,47.84626,-54.09684
2021-10-08 22:39:01+00:00,257.3198,13.1,12.89,47.84626,-54.09684
2021-10-08 22:49:01+00:00,261.3147,13.06,12.89,47.84626,-54.09684
2021-10-08 22:59:01+00:00,268.7714,13.0,12.89,47.84626,-54.09684
2021-10-08 23:09:01+00:00,279.6063,13.0,12.89,47.84626,-54.09684
2021-10-08 23:19:01+00:00,290.0681,13.0,12.73,47.84626,-54.09684
2021-10-08 23:29:01+00:00,296.4847,12.99,12.73,47.84626,-54.09684
2021-10-08 23:39:01+00:00,305.4446,13.0,12.73,47.84626,-54.09684
2021-10-08 23:49:01+00:00,316.0746,12.95,12.73,47.84626,-54.09684
2021-10-08 23:59:01+00:00,322.1146,12.94,12.73,47.84626,-54.09684
